[[{"header":{"parameterUnit":"m.s-1","parameterCategory":1,"la1":30.2991,"la2":30.254,"lo1":-89.0895,"lo2":-89.0444,"dy":0.0017,"dx":0.0017,"nx":28,"ny":28,"refTime":"2024-07-26T09:00:00:Z","depth":0,"parameterNumber":2,"parameterNumberName":"U-component_of_WINDS"},"data":[0,0,0,0,0,0,0,0,0,0,0,0,0,0,0,0,0,0,0,0,0,0,0,0,0,0,0,0,0,0,0,0,0,0,0,0,0,0,0,0,0,0,0,0,0,0,0,0,0,0,0,0,0,0,0,0,0,0,-0.64,-0.6401,0,-0.6512,-0.6513,-0.6514,-0.6601,-0.6602,-0.6603,-0.6604,-0.6719,-0.6721,-0.6723,0,0,0,0,0,0,0,0,0,0,0,0,0,-0.6261,-0.6263,-0.64,-0.6401,-0.6402,-0.6511,-0.6513,-0.6514,-0.6601,-0.6602,-0.6603,-0.6604,-0.6718,-0.6721,-0.6723,0,0,0,0,0,0,0,0,0,0,0,0,0,-0.6342,-0.6264,-0.6399,-0.6459,-0.6465,-0.6511,-0.6513,-0.6515,-0.6601,-0.6602,-0.6603,-0.6604,-0.6717,-0.672,-0.6724,-0.672,0,0,-0.6734,-0.6736,0,0,0,0,0,0,0,0,-0.6337,-0.6347,-0.6449,-0.6455,-0.6462,-0.6544,-0.6506,-0.6584,-0.66,-0.6549,-0.6604,-0.6605,-0.6659,-0.6668,-0.6686,-0.6725,-0.673,-0.6734,-0.6737,-0.6738,-0.6739,0,0,0,0,0,0,0,-0.6332,-0.6343,-0.6444,-0.645,-0.6458,-0.648,-0.6493,-0.6521,-0.6596,-0.6554,-0.656,-0.6572,-0.6663,-0.6682,-0.6689,-0.6732,-0.6734,-0.6737,-0.674,-0.6741,-0.6773,-0.6772,0,0,0,0,0,0,-0.6317,-0.6337,-0.644,-0.6447,-0.6401,-0.6481,-0.6496,-0.6516,-0.6596,-0.6609,-0.6571,-0.6576,-0.6676,-0.6685,-0.6694,-0.6694,-0.6738,-0.6741,-0.6743,-0.6774,-0.6773,-0.6772,0,0,0,0,0,0,-0.6313,-0.6325,-0.6436,-0.6394,-0.641,-0.6482,-0.6505,-0.6518,-0.6537,-0.6609,-0.6623,-0.6577,-0.6677,-0.6689,-0.6713,-0.6699,-0.6743,-0.6746,-0.6776,-0.6774,-0.6772,-0.6695,0,0,0,0,0,0,-0.6309,-0.6323,-0.6323,-0.6394,-0.6412,-0.6453,-0.6504,-0.6519,-0.6543,-0.655,-0.6618,-0.6631,-0.6679,-0.6707,-0.6716,-0.6705,-0.6749,-0.6777,-0.6775,-0.6773,-0.6699,-0.6691,-0.6684,0,0,0,0,0,-0.6304,-0.6297,-0.6322,-0.6334,-0.6412,-0.6452,-0.6462,-0.6518,-0.6541,-0.6541,-0.6587,-0.6628,-0.6699,-0.6709,-0.672,-0.6709,-0.6778,-0.6776,-0.6773,-0.6702,-0.6692,-0.6684,0,0,0,0,0,0,-0.6223,-0.6307,-0.6336,-0.6352,-0.6394,-0.6466,-0.6468,-0.6506,-0.6542,-0.6548,-0.6616,-0.663,-0.6646,-0.6681,-0.6689,-0.6709,-0.6744,-0.6743,-0.6687,-0.6678,-0.667,-0.6662,-0.6751,0,0,0,0,0,-0.6206,-0.6231,-0.6304,-0.631,-0.633,-0.6395,-0.6414,-0.6453,-0.65,-0.6518,-0.6566,-0.661,-0.6642,-0.6662,-0.6695,-0.6704,-0.672,-0.6703,-0.6695,-0.6688,-0.6687,-0.6693,-0.6686,-0.6763,-0.6763,-0.6763,0,0,-0.6173,-0.6223,-0.6234,-0.6295,-0.6332,-0.6356,-0.6409,-0.6433,-0.6451,-0.6522,-0.6547,-0.6584,-0.6637,-0.6653,-0.6662,-0.6682,-0.6669,-0.6685,-0.6679,-0.6681,-0.669,-0.6683,-0.6676,-0.6761,-0.6761,-0.6762,0,0,-0.6126,-0.6165,-0.6175,-0.6211,-0.6266,-0.631,-0.6312,-0.6379,-0.6405,-0.6432,-0.6485,-0.6508,-0.6562,-0.6598,-0.6623,-0.6587,-0.6626,-0.6596,-0.6556,-0.6562,-0.6556,-0.6551,-0.6538,-0.6532,-0.6595,-0.6594,-0.6594,0,-0.6078,-0.6116,-0.6175,-0.6195,-0.622,-0.6285,-0.6295,-0.6327,-0.6391,-0.6407,-0.6427,-0.6496,-0.6536,-0.6561,-0.6553,-0.6571,-0.6575,-0.6589,-0.6552,-0.6547,-0.6544,-0.6532,-0.6527,-0.659,-0.6591,-0.6591,-0.6592,0,-0.6054,-0.608,-0.6081,-0.614,-0.6165,-0.618,-0.6242,-0.626,-0.6297,-0.6338,-0.6363,-0.6414,-0.6459,-0.6468,-0.6504,-0.6498,-0.6508,-0.6539,-0.6575,-0.6531,-0.6521,-0.6517,-0.6585,-0.6586,-0.6587,-0.6588,0,0,-0.5959,-0.605,-0.6049,-0.6077,-0.6142,-0.6163,-0.6181,-0.6224,-0.6239,-0.628,-0.6297,-0.634,-0.637,-0.6398,-0.6439,-0.6444,-0.6412,-0.6475,-0.6477,-0.6461,-0.6407,-0.6383,-0.6377,-0.6438,-0.6438,-0.6437,-0.6403,0,-0.5921,-0.5956,-0.601,-0.6027,-0.6051,-0.6112,-0.6128,-0.617,-0.6208,-0.6234,-0.6277,-0.6307,-0.6343,-0.6361,-0.6368,-0.6414,-0.6402,-0.6417,-0.6454,-0.6455,-0.6438,-0.6372,-0.6347,-0.6312,-0.6399,-0.6399,-0.6398,0,-0.5882,-0.5919,-0.5939,-0.6002,-0.6014,-0.6027,-0.6071,-0.6095,-0.6143,-0.6171,-0.6202,-0.6246,-0.6268,-0.6301,-0.6331,-0.634,-0.6359,-0.6383,-0.6383,-0.6389,-0.6423,-0.6375,-0.6302,-0.6296,-0.6393,-0.6393,-0.6394,0,-0.581,-0.5865,-0.5884,-0.5906,-0.598,-0.5987,-0.6019,-0.6068,-0.6091,-0.6129,-0.6144,-0.6184,-0.6206,-0.6236,-0.629,-0.6309,-0.6315,-0.6352,-0.6338,-0.6336,-0.6337,-0.6336,-0.6265,-0.6348,-0.6348,-0.6348,-0.6348,0,-0.5763,-0.5772,-0.5853,-0.5864,-0.5877,-0.5938,-0.5948,-0.5985,-0.6029,-0.6048,-0.6104,-0.6121,-0.6192,-0.6217,-0.6259,-0.6278,-0.6288,-0.631,-0.6321,-0.6305,-0.6302,-0.6318,-0.6322,-0.6347,-0.6347,-0.6348,-0.6348,0,-0.5685,-0.5739,-0.5763,-0.5831,-0.5848,-0.5854,-0.5913,-0.5926,-0.5967,-0.5991,-0.6001,-0.6066,-0.6098,-0.6155,-0.6204,-0.6233,-0.6243,-0.6262,-0.6226,-0.6233,-0.6216,-0.6216,-0.6152,-0.6147,-0.6233,-0.6232,-0.6232,0,-0.5651,-0.5659,-0.5728,-0.5744,-0.5773,-0.58,-0.5823,-0.5883,-0.5905,-0.596,-0.5967,-0.6004,-0.6036,-0.6086,-0.6137,-0.6175,-0.6196,-0.617,-0.6202,-0.6185,-0.6195,-0.6193,-0.6194,-0.6163,-0.6162,-0.6161,-0.616,0,-0.5585,-0.5611,-0.5641,-0.5681,-0.5706,-0.5741,-0.5778,-0.5789,-0.5857,-0.5879,-0.5913,-0.5938,-0.5988,-0.6023,-0.6068,-0.6101,-0.6142,-0.615,-0.6149,-0.6132,-0.6111,-0.6122,-0.6206,-0.6151,-0.6152,-0.6153,-0.6153,-0.6153,-0.5528,-0.5538,-0.5587,-0.5619,-0.5653,-0.5686,-0.5702,-0.5745,-0.5774,-0.5819,-0.5853,-0.5884,-0.5932,-0.5996,-0.6026,-0.6051,-0.607,-0.6068,-0.6068,-0.6066,-0.606,-0.6106,-0.606,-0.606,-0.606,-0.6061,-0.6061,0,-0.5464,-0.5499,-0.5527,-0.5577,-0.5602,-0.5638,-0.568,-0.5699,-0.5726,-0.5766,-0.5797,-0.5836,-0.587,-0.5924,-0.5963,-0.5973,-0.5993,-0.5981,-0.5981,-0.5988,-0.6041,-0.6038,-0.5965,-0.5965,-0.5965,-0.5965,-0.5965,-0.5965,-0.5434,-0.5453,-0.5485,-0.5521,-0.5556,-0.5586,-0.5607,-0.5638,-0.5671,-0.5711,-0.574,-0.5775,-0.5821,-0.5863,-0.5897,-0.5912,-0.5923,-0.5906,-0.5926,-0.5975,-0.5984,-0.5993,-0.599,-0.5908,-0.5908,-0.5871,-0.5871,-0.587]},{"header":{"parameterUnit":"m.s-1","parameterCategory":1,"la1":30.2991,"la2":30.254,"lo1":-89.0895,"lo2":-89.0444,"dy":0.0017,"dx":0.0017,"nx":28,"ny":28,"refTime":"2024-07-26T09:00:00:Z","depth":0,"parameterNumber":3,"parameterNumberName":"V-component_of_WINDS"},"data":[0,0,0,0,0,0,0,0,0,0,0,0,0,0,0,0,0,0,0,0,0,0,0,0,0,0,0,0,0,0,0,0,0,0,0,0,0,0,0,0,0,0,0,0,0,0,0,0,0,0,0,0,0,0,0,0,0,0,2.8223,2.8224,0,2.8288,2.8288,2.8289,2.8309,2.8309,2.8309,2.8309,2.8372,2.8373,2.8375,0,0,0,0,0,0,0,0,0,0,0,0,0,2.8115,2.8117,2.8223,2.8224,2.8225,2.8288,2.8288,2.8289,2.8309,2.8309,2.8309,2.8308,2.8371,2.8373,2.8376,0,0,0,0,0,0,0,0,0,0,0,0,0,2.8169,2.8118,2.8223,2.8242,2.8245,2.8287,2.8288,2.829,2.831,2.8309,2.8309,2.8308,2.837,2.8373,2.8376,2.8403,0,0,2.8385,2.8386,0,0,0,0,0,0,0,0,2.8166,2.8173,2.8239,2.8241,2.8244,2.829,2.8274,2.8327,2.831,2.8285,2.8308,2.8308,2.8345,2.835,2.8363,2.8406,2.8409,2.8385,2.8387,2.8388,2.8389,0,0,0,0,0,0,0,2.8162,2.817,2.8248,2.824,2.8243,2.8247,2.8254,2.8284,2.8316,2.8287,2.8289,2.8296,2.8346,2.836,2.8364,2.841,2.8385,2.8388,2.8389,2.8391,2.8479,2.848,0,0,0,0,0,0,2.8155,2.8167,2.8246,2.825,2.8203,2.825,2.8258,2.8276,2.8316,2.8322,2.8296,2.8297,2.8355,2.8361,2.8367,2.8402,2.8388,2.8391,2.8393,2.8479,2.848,2.848,0,0,0,0,0,0,2.8153,2.8162,2.8244,2.8209,2.822,2.8252,2.8272,2.8277,2.8291,2.8323,2.8329,2.8305,2.8355,2.8362,2.8394,2.8404,2.8392,2.8395,2.8478,2.8479,2.848,2.8472,0,0,0,0,0,0,2.815,2.8161,2.8172,2.8209,2.8222,2.8271,2.8273,2.8279,2.8296,2.8298,2.8333,2.8338,2.8355,2.839,2.8397,2.8408,2.8397,2.8477,2.8479,2.848,2.8471,2.8472,2.8473,0,0,0,0,0,2.8146,2.8166,2.8173,2.8182,2.8236,2.8271,2.8278,2.8299,2.8297,2.8308,2.8329,2.8337,2.8402,2.8393,2.8401,2.8413,2.8477,2.8478,2.848,2.8471,2.8472,2.8473,0,0,0,0,0,0,2.8128,2.8172,2.8179,2.8212,2.8238,2.8275,2.8289,2.8299,2.8325,2.8325,2.8348,2.8356,2.8386,2.8403,2.8392,2.8442,2.844,2.8443,2.843,2.8431,2.8432,2.8428,2.84,0,0,0,0,0,2.8128,2.8154,2.819,2.8216,2.8229,2.8257,2.8273,2.8287,2.8314,2.8325,2.8348,2.8373,2.84,2.8417,2.8442,2.8474,2.8482,2.8486,2.8487,2.8488,2.849,2.8509,2.8511,2.8485,2.8485,2.8485,0,0,2.8128,2.8155,2.817,2.8213,2.8235,2.8261,2.8266,2.8293,2.8312,2.8328,2.836,2.8378,2.8408,2.844,2.8456,2.8455,2.8499,2.8489,2.849,2.8492,2.851,2.8513,2.8515,2.8486,2.8485,2.8485,0,0,2.8142,2.8165,2.819,2.8212,2.8245,2.8264,2.827,2.8305,2.8318,2.8351,2.8365,2.8387,2.8432,2.8454,2.847,2.8494,2.8502,2.8501,2.8506,2.8524,2.8526,2.8528,2.8537,2.854,2.8503,2.8503,2.8503,0,2.8138,2.8178,2.82,2.8227,2.8246,2.8264,2.8289,2.8309,2.8348,2.8361,2.836,2.8418,2.8439,2.8477,2.8483,2.8496,2.8503,2.8497,2.8524,2.8526,2.8528,2.8537,2.854,2.8503,2.8503,2.8503,2.8503,0,2.8171,2.8199,2.8215,2.8254,2.8275,2.83,2.8327,2.8345,2.8357,2.8375,2.8409,2.8436,2.8468,2.8478,2.8489,2.8518,2.8516,2.852,2.8518,2.853,2.8539,2.8542,2.8503,2.8503,2.8503,2.8503,0,0,2.8174,2.8227,2.8233,2.8252,2.829,2.8312,2.8338,2.8371,2.8387,2.8414,2.8436,2.8475,2.8479,2.8497,2.8512,2.8527,2.8545,2.8529,2.853,2.8531,2.8579,2.8576,2.858,2.8551,2.8552,2.8552,2.8577,0,2.8193,2.8242,2.8264,2.8303,2.833,2.8348,2.8371,2.8397,2.8415,2.844,2.846,2.8487,2.849,2.8501,2.8518,2.8539,2.8555,2.8538,2.8572,2.8573,2.8564,2.8584,2.8581,2.8603,2.858,2.8581,2.8581,0,2.8221,2.825,2.8292,2.8329,2.8341,2.8362,2.8394,2.8418,2.8448,2.846,2.8482,2.8496,2.8525,2.8521,2.8561,2.8549,2.8564,2.8577,2.8579,2.8582,2.8578,2.8589,2.861,2.8613,2.8586,2.8586,2.8586,0,2.822,2.8269,2.8301,2.8317,2.836,2.8375,2.8393,2.8423,2.8442,2.847,2.8483,2.8513,2.853,2.8553,2.8575,2.8571,2.8613,2.8611,2.8624,2.8624,2.8632,2.8631,2.8656,2.8642,2.8641,2.8641,2.8641,0,2.8239,2.8264,2.8301,2.8321,2.835,2.8375,2.8403,2.8423,2.8449,2.8473,2.849,2.8511,2.8539,2.8564,2.8581,2.8612,2.8619,2.863,2.8634,2.8628,2.8627,2.8639,2.8638,2.8642,2.8642,2.8642,2.8642,0,2.8242,2.8268,2.8304,2.8343,2.8354,2.8374,2.8407,2.8427,2.8447,2.8476,2.8485,2.8516,2.8546,2.8571,2.861,2.8622,2.8654,2.8659,2.8644,2.8646,2.8658,2.8657,2.8692,2.8698,2.8679,2.8679,2.8679,0,2.8252,2.8272,2.8314,2.8332,2.8351,2.8379,2.8399,2.8424,2.8444,2.8481,2.8496,2.8528,2.8555,2.8603,2.8629,2.866,2.8665,2.8675,2.867,2.8664,2.8666,2.8665,2.8667,2.8676,2.8676,2.8676,2.8676,0,2.8268,2.828,2.8309,2.8342,2.8365,2.8393,2.842,2.8433,2.8464,2.8485,2.8517,2.8539,2.858,2.8612,2.8645,2.8664,2.8675,2.8678,2.8683,2.8677,2.8668,2.8674,2.8646,2.8677,2.8677,2.8677,2.8677,2.8677,2.8275,2.8294,2.8327,2.8359,2.8382,2.8408,2.8429,2.8452,2.848,2.8516,2.853,2.8563,2.8594,2.864,2.8659,2.8686,2.8686,2.8693,2.8695,2.8696,2.8696,2.8664,2.8692,2.8692,2.8692,2.8692,2.8692,0,2.8292,2.8315,2.8343,2.8382,2.8407,2.8417,2.8448,2.8468,2.8497,2.8525,2.8552,2.859,2.8621,2.865,2.8683,2.8698,2.8704,2.8706,2.8705,2.8709,2.8693,2.8686,2.8701,2.8701,2.8701,2.8701,2.8701,2.8701,2.8304,2.8337,2.8354,2.8399,2.8421,2.8455,2.8472,2.8496,2.8519,2.856,2.8587,2.8606,2.8635,2.867,2.8699,2.8707,2.8718,2.8719,2.8728,2.8712,2.871,2.8709,2.8703,2.8721,2.8721,2.8742,2.8742,2.8742]}]]